Location: Wilco Estates
(34.7487°N, 89.9820°W)
Time: 04:09:16
(UTC+00:00)

Daily predictions for brighter satellites

Satellite Brightness Start Highest point End
(mag) Time Altitude Azimuth Time Altitude Azimuth Time Altitude Azimuth
Milstar 3 4.4 00:38:03 10° SW 00:45:43 38° SSE 00:58:41 10° E
Meteor 1-16 Rocket 4.4 00:48:00 10° SSE 00:53:29 51° E 00:58:51 10° NNE
COSMOS 2406 3.4 00:49:49 10° NNW 00:55:36 81° WSW 01:01:19 10° SSE
Cosmos 1331 Rocket 4.2 00:55:21 10° SSW 01:00:33 81° WNW 01:05:50 10° NNE
Cosmos 1953 2.7 00:57:51 10° SSE 01:01:22 36° E 01:04:54 10° NNE
CZ-4B R/B 2.8 00:57:55 10° SSE 01:01:41 56° ENE 01:05:16 10° N
Cosmos 1850 Rocket 4.3 00:57:59 10° N 01:03:08 50° ENE 01:08:12 10° SE
Cosmos 2297 3.9 00:59:31 10° SSW 01:05:09 82° WNW 01:10:53 10° NNE
Meteor PRIRODA 4.0 01:04:28 10° S 01:07:50 61° W 01:11:14 10° NNW
CZ-4B DEB 4.2 01:03:26 10° SSE 01:08:55 68° ENE 01:14:25 10° N
ADEOS Rocket 3.2 01:04:29 10° S 01:10:07 68° WSW 01:15:35 10° NNW
NOSS 3-1 (A) 4.4 01:11:02 10° SE 01:13:15 13° ESE 01:15:33 10° ENE
Cosmos 2369 Rocket 2.2 01:08:52 10° SSW 01:14:33 86° ESE 01:20:14 10° NNE
ADEOS 4.0 01:09:57 10° S 01:15:07 68° WSW 01:20:20 10° NNW
SJ 16-02 2.9 01:12:10 10° NNE 01:15:09 18° ENE 01:17:18 13° E
DELTA 2 DEB (DPAF) 4.4 01:12:22 10° NNE 01:16:22 40° E 01:20:21 10° S
Iridium 82 4.4 01:16:09 10° N 01:19:41 78° E 01:23:21 10° S
SL-8 Rocket 4.3 01:13:49 10° N 01:19:41 44° E 01:25:29 10° SSE
SPOT 1/Viking Rocket 3.7 01:18:19 10° SSE 01:23:22 56° ENE 01:28:29 10° N
Cosmos 2263 4.1 01:17:49 10° SSW 01:23:26 73° ESE 01:29:02 10° NNE
Cosmos 2098 Rocket 4.4 01:19:26 10° SSE 01:24:09 28° E 01:28:13 10° NE
APEX 4.1 01:21:44 10° NW 01:24:41 36° WSW 01:27:26 10° S
CZ-4B R/B 3.4 01:23:16 10° SSE 01:28:46 55° ENE 01:34:14 10° N
Okean-O 4.3 01:28:34 14° E 01:29:38 16° ENE 01:32:13 10° NNE
Cosmos 2341 Rocket 4.0 01:24:44 10° N 01:30:58 61° E 01:37:05 10° SSE
Cosmos 1674 Rocket 4.1 01:26:52 10° NNW 01:31:16 63° W 01:35:38 10° S
Cosmos 1825 2.0 01:28:13 10° N 01:31:36 52° E 01:34:23 14° SSE
USA 234 3.5 01:28:21 15° ESE 01:33:42 58° NE 01:40:05 10° NW
NOSS 3-1 (C) 2.8 01:31:34 10° SSW 01:36:07 61° ESE 01:41:20 10° NE
Cosmos 2082 Rocket 4.3 01:34:27 10° NW 01:39:06 26° WSW 01:43:44 10° SSW
Hubble Space Telescope 1.6 01:36:37 10° WSW 01:40:11 32° S 01:41:39 24° SE
Resurs 1-3 4.0 01:37:34 10° S 01:41:52 65° W 01:46:12 10° NNW
[s.n.70599] 3.5 01:43:17 10° W 01:45:35 33° SW 01:46:07 29° S
Cosmos 2366 rocket 4.0 01:44:14 10° N 01:50:34 70° E 01:56:53 10° SSE
Okean O Rocket 1.7 01:49:28 25° SE 01:51:48 56° ENE 01:56:03 10° N
Cosmos 1025 Rocket 2.9 01:47:48 10° N 01:52:10 79° E 01:55:30 17° S
ATLAS 3B R/B 2.9 01:50:49 10° S 01:57:21 51° ESE 02:04:23 10° NE
Resurs 01 Rocket 1.5 01:55:01 25° SSE 01:57:27 68° ENE 02:01:51 10° N
Cosmos 2218 Rocket 4.0 01:51:30 10° N 01:57:55 78° E 02:03:55 12° S
CARTOSAT-1 3.5 01:58:16 32° SE 02:00:05 64° ENE 02:04:20 10° N
Cosmos 1346 Rocket 3.9 01:57:18 10° SSW 02:00:56 42° W 02:04:36 10° N
USA 281 3.4 01:59:34 27° SE 02:03:01 53° ENE 02:09:21 10° NNW
Cosmos 1975 Rocket 3.1 02:00:03 10° N 02:04:16 54° E 02:05:11 44° SE
Cosmos 1821 Rocket 4.1 02:00:12 10° N 02:06:09 49° E 02:08:32 33° SE
USA 129 4.4 02:04:17 10° N 02:05:08 16° NNW 02:05:08 16° NNW
Cosmos 1959 Rocket 4.4 02:01:56 10° N 02:08:05 88° ENE 02:13:23 15° S
Cosmos 1328 4.2 02:05:50 10° NNW 02:09:32 56° W 02:11:46 22° SSW
OAO 3 Rocket 3.1 02:07:09 10° W 02:12:03 89° NNW 02:13:29 47° E
Meteor 1-21 Rocket 4.5 02:09:29 10° NNW 02:15:25 75° W 02:20:11 16° S
USA 186 3.5 02:16:17 20° SW 02:17:41 29° W 02:20:25 10° NW
DELTA 2 R/B (1) 3.7 02:13:15 10° WNW 02:18:47 63° SSW 02:20:22 44° SSE
CZ-4 R/B 3.8 02:19:34 10° SW 02:22:34 21° W 02:25:34 10° NW
ATLAS 5 CENTAUR R/B 1.7 02:20:25 10° SW 02:23:37 50° WNW 02:27:00 10° NNE
SPOT 5 3.6 02:24:45 40° ENE 02:24:47 40° ENE 02:29:43 10° N
ERS-1 Rocket 4.2 02:36:16 27° NE 02:36:16 27° NE 02:39:26 10° N
Meteor 1-11 4.1 02:29:31 10° N 02:35:13 84° E 02:36:34 54° SSE
MOS 1 4.2 02:45:26 68° SSE 02:46:14 87° ENE 02:51:58 10° NNW
Okean 2 Rocket 4.4 02:52:04 32° NNE 02:52:04 32° NNE 02:54:34 10° N
Cosmos 1934 Rocket 4.4 02:46:18 10° N 02:51:27 46° ENE 02:51:27 46° ENE
SJ 16-02 2.8 02:49:43 10° NW 02:53:32 31° W 02:54:07 30° WSW
OAO 1 Rocket 4.5 02:50:24 10° W 02:55:16 75° WNW 02:55:16 75° WNW
IRS-1C Rocket 4.1 02:56:51 73° NNE 02:56:51 73° NNE 03:01:40 10° N
Cosmos 2297 Rocket 4.2 02:57:20 10° NNE 02:59:36 16° NE 02:59:36 16° NE
NOSS 3-1 (A) 3.6 02:58:31 10° SW 03:03:10 53° NW 03:08:32 10° NNE
MetOp-B 4.2 03:05:01 74° NW 03:05:01 74° NW 03:09:57 10° NNW
Okean-O 3.8 03:06:02 39° W 03:06:02 39° W 03:09:48 10° NNW
Terra 3.3 03:09:26 28° NNE 03:09:26 28° NNE 03:11:49 10° N
USA 234 4.3 03:15:43 32° SW 03:16:49 34° SW 03:22:37 10° WNW
Ariane Rocket 4.4 03:27:13 33° N 03:27:13 33° N 03:29:59 10° N
ATLAS 3B R/B 4.3 03:42:10 10° WSW 03:48:20 32° NW 03:54:54 10° NNE
Cosmos 2227 Rocket 4.4 04:11:09 10° N 04:12:58 19° N 04:12:58 19° N
CZ-4C R/B 4.1 04:31:19 10° NNW 04:36:24 37° NNE 04:36:24 37° NNE
Cosmos 2297 Rocket 4.5 04:39:48 10° NNW 04:41:24 19° NNW 04:41:24 19° NNW
CENTAUR R/B 4.2 05:09:13 10° NNW 05:15:26 41° NNE 05:15:26 41° NNE
ADEOS II 4.3 07:34:52 10° NNE 07:36:44 20° NE 07:36:44 20° NE
CZ-2D R/B 4.0 07:47:18 10° NNE 07:49:32 26° NNE 07:49:32 26° NNE
SL-16 R/B 4.0 07:51:52 30° E 07:52:45 31° ENE 07:58:04 10° N
COSMOS 2428 4.0 08:10:38 36° NNE 08:10:38 36° NNE 08:13:52 10° NNE
CZ-2C R/B 4.1 08:17:16 31° N 08:17:16 31° N 08:20:01 10° N
Cosmos 2237 Rocket 3.5 08:16:42 35° ENE 08:16:42 35° ENE 08:20:47 10° NE
Lacrosse 5 4.3 08:21:30 15° NNW 08:21:30 15° NNW 08:23:22 10° N
ATLAS 2AS CENTAUR R/B 4.4 08:19:52 22° SE 08:21:49 25° ESE 08:27:30 10° ENE
CZ-2C R/B 4.4 08:20:32 10° NNE 08:23:30 36° NNE 08:23:30 36° NNE
ALOS 4.1 08:21:31 10° NNE 08:23:57 28° NE 08:23:57 28° NE
Resurs 1-4 Rocket 3.8 08:27:51 10° N 08:30:10 24° NNW 08:30:10 24° NNW
Nadezhda 4 Rocket 4.3 08:44:01 55° NNW 08:44:01 55° NNW 08:48:50 10° N
H-2A R/B 4.2 08:46:25 38° S 08:46:25 38° S 09:14:04 10° ESE
NOSS 0 Rocket 4.0 08:48:14 65° NNW 08:48:14 65° NNW 08:53:40 10° NNE
Cosmos 1680 Rocket 4.3 08:47:51 44° ESE 08:47:56 44° ESE 08:52:58 10° NNE
Cosmos 2278 Rocket 3.2 08:47:48 10° N 08:53:14 45° ENE 08:58:36 10° SE
Cosmos 1428 Rocket 4.4 08:53:49 87° W 08:53:49 87° W 09:00:08 10° N
Cosmos 2219 Rocket 4.3 08:55:50 15° NW 08:55:50 15° NW 08:57:45 10° NNW
BREEZE-M DEB (TANK) 3.8 09:00:45 75° N 09:00:45 75° N 09:10:50 10° NE
RESURS DK-1 4.5 09:04:22 19° N 09:04:22 19° N 09:05:50 10° N
Meteor 2-10 4.5 08:59:13 10° N 09:04:50 66° E 09:07:23 33° SSE
SL-16 R/B 3.8 09:03:20 19° SSE 09:06:13 29° ESE 09:11:01 10° NE
Cosmos 1151 Rocket 3.9 09:07:56 45° N 09:07:56 45° N 09:10:58 10° N
METEOR-M 4.3 09:05:28 10° NNE 09:10:47 68° ESE 09:11:50 54° SSE
USA 308 4.5 09:12:46 25° ESE 09:12:46 25° ESE 09:15:17 10° ENE
CZ-2C R/B 3.2 09:07:47 10° NNE 09:12:49 50° E 09:14:38 34° SSE
BREEZE-M DEB (TANK) 4.5 09:13:45 45° WSW 09:16:38 74° NNW 09:50:35 10° ENE
Cosmos 921 Rocket 3.9 09:16:42 39° ESE 09:17:17 42° E 09:21:20 10° NNE
ADEOS II 3.6 09:14:50 10° NNW 09:17:38 22° NW 09:17:38 22° NW
Cosmos 1626 4.1 09:18:46 20° ESE 09:19:24 22° E 09:22:00 10° NE
Meteor 1-19 Rocket 4.3 09:20:01 57° W 09:20:10 57° W 09:26:03 10° N
Cosmos 923 Rocket 4.1 09:23:20 58° WNW 09:23:20 58° WNW 09:28:25 10° N
Cosmos 1975 4.3 09:20:33 10° NNE 09:24:05 34° E 09:27:23 11° SE
Cosmos 1092 Rocket 3.9 09:24:59 55° WSW 09:25:54 61° W 09:31:59 10° N
CZ-2D R/B 4.3 09:29:49 10° NW 09:30:50 12° NW 09:30:50 12° NW
Cosmos 2026 Rocket 4.1 09:32:11 47° WSW 09:33:22 53° W 09:39:34 10° N
Envisat 2.9 09:28:40 10° N 09:33:44 75° WNW 09:34:51 54° SW
BREEZE-M DEB (TANK) 3.6 09:34:04 37° W 09:35:30 45° NW 09:38:39 10° NE
SL-16 R/B 3.1 09:36:56 35° W 09:36:56 35° W 09:41:47 10° NNW
NOSS 2-2 (E) 4.4 09:31:27 10° NNW 09:36:37 81° ENE 09:44:03 10° SSE
EO 1 Delta rocket 4.3 09:37:33 10° N 09:41:49 41° WNW 09:41:49 41° WNW
Meteor 1-18 Rocket 4.2 09:39:20 24° S 09:42:49 83° E 09:48:31 10° N
Cosmos 1666 Rocket 3.7 09:41:12 10° N 09:45:39 73° E 09:50:02 10° SSE
CZ-4 R/B 4.3 09:45:18 10° N 09:49:38 38° WNW 09:49:59 37° W
Meteor 2-4 Rocket 3.5 09:48:37 33° SSW 09:51:03 68° W 09:56:30 10° N
NOSS 2-2 (D) 4.4 09:46:09 10° NNW 09:51:12 78° ENE 09:58:29 10° SE
Thor Agena Rocket 3.4 09:46:28 10° N 09:51:29 70° WNW 09:53:50 32° SSW
Cosmos 1943 Rocket 2.3 09:46:44 10° NNW 09:52:25 81° ENE 09:58:05 10° SSE
YAOGAN 6 2.5 09:50:06 10° N 09:53:02 54° NW 09:53:02 54° NW
H-2A R/B 3.4 09:50:43 10° NNE 09:55:21 36° E 10:00:04 10° SSE
BlueWalker 3 4.0 09:53:02 10° NNW 09:56:20 27° NE 09:59:37 10° E
NOAA 11 4.4 09:54:20 10° N 09:59:36 52° WNW 10:02:19 28° SW
Cosmos 2237 Rocket 3.3 09:58:31 24° WNW 09:59:41 26° WNW 10:04:21 10° N
ALOS 4.2 10:00:18 10° NNW 10:02:17 14° WNW 10:02:17 14° WNW
Cosmos 1340 Rocket 3.7 10:04:12 29° WNW 10:04:12 29° WNW 10:07:25 10° NNW
Cosmos 1867 4.2 10:01:28 10° NW 10:06:14 31° WSW 10:10:57 10° S
DMSP B5D2-2 4.0 10:03:06 10° SSE 10:08:18 88° WSW 10:13:31 10° NNW
Cosmos 1328 Rocket 4.0 10:08:30 30° SW 10:10:06 42° W 10:14:19 10° N
ATLAS 2AS CENTAUR R/B 3.0 10:07:19 22° SW 10:12:16 61° WNW 10:19:26 10° NNE
Cosmos 1805 3.6 10:09:31 10° NNW 10:12:56 36° W 10:13:51 31° SW
CRYOSAT 2 4.3 10:09:14 10° N 10:14:07 87° E 10:18:59 10° S
Cosmos 1707 4.3 10:12:46 10° SSE 10:16:06 34° E 10:19:27 10° NNE
SWAS 4.3 10:15:07 10° NNW 10:19:19 71° WSW 10:23:29 10° SSE
Chandra Rocket (1) 2.8 10:18:55 22° SW 10:20:31 36° SSE 10:26:57 10° E
IRS-1D 4.2 10:18:02 10° N 10:22:42 37° WNW 10:26:05 17° SW
Cosmos 1633 Rocket 3.2 10:19:25 10° NNW 10:23:35 47° W 10:27:45 10° SSW
S3M 4.1 10:18:50 10° N 10:25:01 79° E 10:31:16 10° S
Cosmos 1048 Rocket 4.0 10:20:52 10° SSW 10:26:13 86° WNW 10:31:32 10° NNE
Cosmos 1943 4.4 10:21:59 10° S 10:27:18 43° ESE 10:32:39 10° NE
Cosmos 2266 Rocket 3.9 10:22:42 10° SSW 10:28:48 72° W 10:34:52 10° N
Cosmos 1655 Rocket 4.1 10:23:04 10° S 10:29:16 79° E 10:35:29 10° N
SL-08 ROCKET BODY 4.3 10:28:30 10° S 10:34:20 76° W 10:40:19 10° N
Cosmos 2278 Rocket 3.3 10:32:47 10° NW 10:36:53 21° W 10:40:59 10° SSW
Cosmos 1461 4.0 10:39:41 10° WNW 10:42:20 18° WSW 10:44:59 10° SSW
ARIANE 5 R/B 3.6 10:37:29 10° NNE 10:42:33 49° E 10:47:33 10° S
Cosmos 1674 2.5 10:40:31 10° SSW 10:43:53 54° W 10:47:15 10° N
USA 308 3.7 10:41:23 14° W 10:44:03 30° NW 10:47:32 10° NNE
Delta 2 Rocket 4.3 10:40:59 12° SW 10:45:22 47° SSE 10:49:49 10° E
Cosmos 2056 Rocket 3.9 10:42:20 10° NNW 10:47:22 41° W 10:52:25 10° S
ATLAS 5 CENTAUR R/B 3.4 10:42:33 11° WSW 10:47:49 18° SSW 10:50:57 10° SSE
SL-16 R/B 3.0 10:45:15 10° SW 10:50:10 33° WNW 10:55:14 10° N
CZ-2C R/B 4.1 10:47:09 10° NNW 10:50:28 17° WNW 10:53:45 10° WSW
Cosmos 2315 Rocket 4.1 10:45:33 10° N 10:51:46 86° E 10:57:58 10° S
ARGOS 3.9 10:46:46 10° NNE 10:52:03 57° E 10:57:17 10° S
Cosmos 1766 3.6 10:49:32 10° NNW 10:53:00 38° W 10:56:25 10° SSW
Cosmos 1939 Rocket 2.7 10:49:20 10° N 10:53:04 68° WNW 10:56:49 10° SSW
Cosmos 1626 3.8 10:51:53 11° W 10:53:08 13° WNW 10:54:40 10° NW
Cosmos 1452 Rocket 4.2 10:49:23 10° N 10:54:34 59° ENE 10:59:43 10° SSE
Cosmos 1340 4.2 10:53:08 10° NW 10:55:05 14° W 10:57:00 10° SW
KORONAS-FOTON 3.9 10:52:28 10° SSW 10:56:01 47° W 10:59:34 10° N
Cosmos 1656 Rocket 3.9 10:55:37 10° NNW 11:01:02 77° ENE 11:06:26 10° SSE
NOSS 3-1 (C) 4.4 10:54:48 10° NNW 11:02:44 86° ENE 11:12:03 10° SSE
ASTRO E2 3.4 11:01:30 10° SW 11:04:46 36° SSE 11:08:02 10° E
CZ-3 R/B 3.1 11:05:29 10° WSW 11:22:31 47° S 11:28:11 10° ESE
